TimeCDT,TemperatureF,Dew PointF,Humidity,Sea Level PressureIn,VisibilityMPH,Wind Direction,Wind SpeedMPH,Gust SpeedMPH,PrecipitationIn,Events,Conditions,WindDirDegrees,DateUTC
12:53 AM,75.9,63.0,64,30.06,10.0,South,11.5,-,N/A,,Clear,170,2012-10-05 05:53:00
1:53 AM,73.9,64.0,71,30.06,10.0,South,9.2,-,N/A,,Overcast,180,2012-10-05 06:53:00
3:53 AM,73.0,64.0,73,30.06,10.0,South,5.8,-,N/A,,Overcast,180,2012-10-05 08:53:00
4:53 AM,72.0,64.9,78,30.06,10.0,South,5.8,-,N/A,,Overcast,170,2012-10-05 09:53:00
5:53 AM,72.0,66.0,81,30.06,10.0,South,6.9,-,N/A,,Overcast,170,2012-10-05 10:53:00
6:53 AM,72.0,68.0,87,30.06,10.0,South,6.9,-,N/A,,Mostly Cloudy,190,2012-10-05 11:53:00
7:46 AM,71.6,68.0,88,30.08,9.0,SSW,4.6,-,N/A,,Overcast,200,2012-10-05 12:46:00
7:53 AM,72.0,68.0,87,30.07,9.0,SSW,4.6,-,N/A,,Overcast,200,2012-10-05 12:53:00
8:08 AM,71.6,69.8,94,30.09,9.0,SSW,4.6,-,N/A,,Overcast,200,2012-10-05 13:08:00
8:37 AM,73.4,69.8,88,30.09,10.0,South,6.9,-,N/A,,Overcast,180,2012-10-05 13:37:00
8:53 AM,73.0,69.1,87,30.07,9.0,SSW,5.8,-,N/A,,Overcast,200,2012-10-05 13:53:00
9:28 AM,75.2,69.8,83,30.08,10.0,SSW,9.2,-,N/A,,Scattered Clouds,200,2012-10-05 14:28:00
9:53 AM,77.0,70.0,79,30.06,10.0,South,12.7,19.6,N/A,,Partly Cloudy,190,2012-10-05 14:53:00
10:42 AM,80.6,69.8,70,30.08,10.0,South,15.0,20.7,N/A,,Mostly Cloudy,190,2012-10-05 15:42:00
10:53 AM,82.0,70.0,67,30.06,10.0,SW,15.0,-,N/A,,Mostly Cloudy,230,2012-10-05 15:53:00
11:53 AM,81.0,68.0,65,30.06,10.0,SW,12.7,-,N/A,,Mostly Cloudy,230,2012-10-05 16:53:00
12:53 PM,82.9,66.9,58,30.04,10.0,SW,9.2,21.9,N/A,,Scattered Clouds,220,2012-10-05 17:53:00
1:53 PM,84.0,66.0,55,30.01,10.0,SW,9.2,-,N/A,,Scattered Clouds,220,2012-10-05 18:53:00
2:53 PM,86.0,64.0,48,29.98,10.0,SSW,8.1,19.6,N/A,,Scattered Clouds,210,2012-10-05 19:53:00
3:53 PM,87.1,64.0,46,29.97,10.0,SW,10.4,-,N/A,,Mostly Cloudy,230,2012-10-05 20:53:00
4:53 PM,84.9,64.0,49,29.96,10.0,South,8.1,-,N/A,,Scattered Clouds,190,2012-10-05 21:53:00
5:53 PM,81.0,64.9,58,29.96,10.0,North,13.8,19.6,N/A,,Overcast,10,2012-10-05 22:53:00
6:08 PM,78.8,62.6,57,29.99,10.0,NNE,15.0,18.4,N/A,,Overcast,20,2012-10-05 23:08:00
6:53 PM,75.9,60.1,58,29.99,10.0,NNE,16.1,19.6,N/A,,Mostly Cloudy,20,2012-10-05 23:53:00
7:53 PM,70.0,55.9,61,30.01,10.0,North,16.1,20.7,N/A,,Mostly Cloudy,10,2012-10-06 00:53:00
8:53 PM,64.0,53.1,67,30.05,10.0,North,16.1,-,N/A,,Mostly Cloudy,10,2012-10-06 01:53:00
9:53 PM,61.0,52.0,72,30.07,10.0,North,17.3,23.0,N/A,,Overcast,10,2012-10-06 02:53:00
10:53 PM,59.0,50.0,72,30.09,10.0,North,13.8,20.7,N/A,,Overcast,10,2012-10-06 03:53:00
11:53 PM,57.9,48.9,72,30.09,10.0,North,11.5,-,N/A,,Mostly Cloudy,10,2012-10-06 04:53:00